Location: Newark
(27.9675°N, 86.8869°E)
Time: 21:21:13
(UTC+00:00)

Courier 1B Rocket - Pass Details

Date: 21 October 2019
Orbit: 920 x 1202 km, 28.2° (Epoch: 17 November)

Event Time Altitude Azimuth Distance (km) Brightness Sun altitude
Rises 21:39:33 0° 261° (W) 3,581 - -35.3°
Reaches altitude 10° 21:42:11 10° 261° (W) 2,619 - -34.7°
Maximum altitude 21:48:27 87° 173° (S) 920 - -33.4°
Exits shadow 21:49:41 60° 88° (E) 1,041 5.2 -33.1°
Drops below altitude 10° 21:54:45 10° 84° (E) 2,626 8.1 -32.0°
Sets 21:57:23 0° 84° (E) 3,591 9.1 -31.4°
